SPROUT (39770 NORAD) Tracking and Keplerian Element Data

This shows tracking and keplerian element data for the satellite.

Feedback or suggestion? Click here.




ElementValue
Catalog39770
NameSPROUT
Epoch Orbit54622
Epoch Day159.94508197
Epoch Year2024
RAAN311.5776
Inclination98.0082
Eccentricity0.0008651
Argument of Perigee228.0446
Mean Anonmoly132.0065
Mean Motion15.45227122
Decay Rate0.00236686
L11 39770U 14029E 24159.94508197 .00236686 00000+0 48353-2 0 9991
L22 39770 98.0082 311.5776 0008651 228.0446 132.0065 15.45227122546228



Live tracking and technical data element details for SPROUT (NORAD 39770). SPROUT can be tracked NOW for your location showing map with azimuth and elevation plus other details from your city location.







IsCatalogInMostPopularTable: catalog: 39770, numindb: 626
Update: records affected: 1



GetName: 39770 SPROUT

Hit Count: updated at: Mon, 13 Jan 2025 20:18:32 GMT